Wiscasset, ME

8:07 PM EDT on October 22, 2017 (GMT -0400)
Wiscasset

Weather History for KIWI - October, 2011

Change the Weather History Date:

Wednesday, October 5, 2011

  Actual Average Record
Temperature  
Mean Temperature 48 °F -  
Max Temperature 60 °F 59 °F 79 °F (2002)
Min Temperature 37 °F 37 °F 28 °F (1996)
Degree Days  
Heating Degree Days 16    
Moisture  
Dew Point 43 °F    
Average Humidity 75    
Maximum Humidity 89    
Minimum Humidity 49    
Precipitation  
Precipitation 0.07 in - - ()
Sea Level Pressure  
Sea Level Pressure 29.95 in    
Wind  
Wind Speed 5 mph (NW)    
Max Wind Speed 8 mph    
Max Gust Speed 23 mph    
Visibility 10 miles    
Events Rain    
Averages and records for this station are not official NWS values.
T = Trace of Precipitation, MM = Missing Value Source: NWS Daily Summary

Daily Weather History Graph

Daily Weather History Graph

Search for Another Location

Airport or City:

Trip Planner

Search our weather history database for the weather conditions in past years. The results will help you decide how hot, cold, wet, or windy it might be!

Date:

Astronomy

Oct. 05, 2011 Rise Set
Actual Time 6:40 AM EDT 6:13 PM EDT
Civil Twilight 6:12 AM EDT 6:41 PM EDT
Nautical Twilight 5:38 AM EDT 7:15 PM EDT
Astronomical Twilight 5:04 AM EDT 7:48 PM EDT
Moon 3:02 PM EDT (10/5) 12:11 AM EDT (10/5)
Length of Visible Light 12h 29m
Length of Day
11h 32m
Waxing Gibbous, 66% of the Moon is Illuminated
Oct 5
Waxing Gibbous
Oct 11
Full
Oct 19
Last Quarter
Oct 26
New
Nov 2
First Quarter

Hourly Weather History & Observations

Time (EDT) Temp. Windchill Dew Point Humidity Pressure Visibility Wind Dir Wind Speed Gust Speed Precip Events Conditions
12:53 AM 51.1 °F - 48.0 °F 89% 29.87 in 10.0 mi Variable 5.8 mph - N/A   Overcast
1:53 AM 52.0 °F - 48.0 °F 86% 29.86 in 10.0 mi Variable 3.5 mph - N/A   Mostly Cloudy
2:51 AM 51.8 °F - 48.2 °F 88% 29.87 in 10.0 mi Variable 6.9 mph - N/A   Overcast
2:53 AM 52.0 °F - 46.9 °F 83% 29.87 in 10.0 mi Variable 4.6 mph - N/A   Overcast
3:45 AM 51.8 °F - 48.2 °F 88% 29.86 in 10.0 mi Calm Calm - N/A   Overcast
3:53 AM 52.0 °F - 48.0 °F 86% 29.86 in 10.0 mi Variable 5.8 mph - N/A   Overcast
4:53 AM 52.0 °F - 48.0 °F 86% 29.87 in 10.0 mi NNW 4.6 mph - N/A   Overcast
5:24 AM 51.8 °F - 46.4 °F 82% 29.87 in 10.0 mi Calm Calm - N/A   Mostly Cloudy
5:53 AM 51.1 °F - 46.9 °F 86% 29.89 in 10.0 mi Variable 4.6 mph - N/A   Overcast
6:00 AM 51.8 °F - 46.4 °F 82% 29.88 in 10.0 mi Variable 4.6 mph - N/A   Overcast
8:53 AM 53.1 °F - 44.1 °F 71% 29.92 in 10.0 mi Variable 5.8 mph - N/A   Mostly Cloudy
9:53 AM 55.0 °F - 44.1 °F 67% 29.92 in 10.0 mi Variable 6.9 mph - N/A   Overcast
10:53 AM 57.0 °F - 43.0 °F 59% 29.91 in 10.0 mi Variable 6.9 mph - N/A   Overcast
11:53 AM 60.1 °F - 42.1 °F 51% 29.91 in 10.0 mi Variable 6.9 mph - N/A   Mostly Cloudy
12:28 PM 51.8 °F - 44.6 °F 76% 29.93 in 2.5 mi Variable 4.6 mph - 0.07 in Rain Light Rain
12:36 PM 51.8 °F - 46.4 °F 82% 29.93 in 10.0 mi Variable 4.6 mph - 0.07 in   Overcast
12:53 PM 52.0 °F - 46.0 °F 80% 29.94 in 10.0 mi Variable 6.9 mph - 0.07 in   Overcast
1:53 PM 57.0 °F - 41.0 °F 55% 29.94 in 10.0 mi NNW 8.1 mph - N/A   Mostly Cloudy
3:53 PM 54.0 °F - 35.1 °F 49% 29.97 in 10.0 mi Variable 4.6 mph - N/A   Partly Cloudy
4:53 PM 53.1 °F - 36.0 °F 52% 30.00 in 10.0 mi Variable 6.9 mph 21.9 mph N/A   Scattered Clouds
5:53 PM 50.0 °F - 33.1 °F 52% 30.05 in 10.0 mi Variable 6.9 mph 23.0 mph N/A   Scattered Clouds
7:53 PM 42.1 °F - 36.0 °F 79% 30.12 in 10.0 mi Calm Calm - N/A   Partly Cloudy
8:53 PM 41.0 °F - 36.0 °F 82% 30.14 in 10.0 mi Calm Calm - N/A   Clear
9:53 PM 42.1 °F 40.2 °F 35.1 °F 76% 30.14 in 10.0 mi NW 3.5 mph - N/A   Clear
10:53 PM 37.9 °F - 34.0 °F 86% 30.14 in 10.0 mi Calm Calm - N/A   Clear
11:53 PM 37.0 °F - 34.0 °F 89% 30.15 in 10.0 mi Calm Calm - N/A   Clear